Location: La Trinit�
(48.1620°N, 3.4512°W)
Time: 02:33:03
(UTC+00:00)

deb Kosmos-1763 - Pass Details

Date: 08 May 2021
Orbit: 448 x 457 km, 74.0° (Epoch: 13 June)

Event Time Altitude Azimuth Distance (km) Brightness Sun altitude
Rises 22:23:49 0° 333° (NNW) 2,486 9.3 -20.3°
Reaches altitude 10° 22:25:56 10° 329° (NNW) 1,610 7.9 -20.5°
Maximum altitude 22:29:24 56° 252° (WSW) 555 4.3 -20.7°
Enters shadow 22:29:32 55° 241° (WSW) 557 4.2 -20.7°
